Flag for Italy Weather past 2 weeks in Trieste, Italy

Now
63 °F

Overcast.


Feels Like: 63 °F
Forecast: 56 / 63 °F
Wind: 1 mph from Northeast

Location: Trieste

Current Time: Apr 27, 2015 at 6:37:38 PM

Latest Report: Apr 27, 2015 at 5:00 PM


Visibility: 6 mi

Pressure: 29.74 "Hg

Humidity: 84%

Dew point: 58 °F

Location of TriesteLocation

Historic Weather in Trieste — Graph

°F

Trieste temperature yesterday

Maximum temperature yesterday: 65 °F (at 3:00 PM)
Minimum temperature yesterday: 57 °F (at 6:00 AM)
Average temperature yesterday: 61 °F

Past Weeks' High & Low Weather Summary

 TemperatureHumidityPressure
High73 °F (Apr 14, 2:00 PM)95% (Apr 17, 2:00 PM)30.37 "Hg (Apr 17, 2:00 PM)
Low40 °F (Apr 19, 6:00 AM)2% (Apr 15, 8:00 PM)29.74 "Hg (Apr 27, 5:00 PM)
Average59 °F67%30.09 "Hg
* Reported Apr 12 5:00 PM — Apr 27 5:00 PM, Trieste, Weather by CustomWeather, © 2015

Note: Actual official high and low records may vary slightly from our data, if they occured in-between our weather recording intervals... More about our weather records

Advertising

Trieste weather history for previous 24 hours

 ConditionsComfort  
Time TempWeatherWind HumidityBarometerVisibility
5:00 PM
Mon, Apr 27
63 °FOvercast.1 mph84%29.74 "Hg6 mi
4:00 PM62 °FOvercast.2 mph81%29.77 "Hg6 mi
3:00 PM63 °FOvercast.2 mph81%29.78 "Hg6 mi
2:00 PM63 °FLight rain. Overcast.6 mph79%29.80 "Hg6 mi
1:00 PM65 °FOvercast.7 mph62%29.80 "Hg6 mi
12:00 PM66 °FOvercast.7 mph62%29.80 "Hg6 mi
11:00 AM67 °FOvercast.1 mph65%29.80 "Hg6 mi
10:00 AM66 °FOvercast.2 mph64%29.80 "Hg6 mi
9:00 AM64 °FOvercast.1 mph73%29.81 "Hg6 mi
8:00 AM61 °FOvercast.No wind78%29.82 "Hg6 mi
7:00 AM59 °FOvercast.2 mph79%29.81 "Hg6 mi
6:00 AM58 °FDrizzle. Overcast.2 mph85%29.81 "Hg6 mi
5:00 AM59 °FOvercast.No wind84%29.83 "Hg6 mi
4:00 AM59 °FOvercast.1 mph84%29.84 "Hg6 mi
3:00 AM59 °FOvercast.No wind85%29.85 "Hg6 mi
2:00 AM60 °FOvercast.2 mph78%29.87 "Hg6 mi
1:00 AM59 °FOvercast.2 mph81%29.89 "Hg6 mi
12:00 AM61 °FOvercast.1 mph79%29.90 "Hg6 mi
11:00 PM
Sun, Apr 26
61 °FOvercast.1 mph81%29.90 "Hg6 mi
10:00 PM60 °FPassing clouds.No wind95%29.90 "Hg6 mi
9:00 PM61 °FPassing clouds.No wind94%29.89 "Hg6 mi
8:00 PM62 °FPartly sunny.1 mph94%29.88 "Hg6 mi
7:00 PM63 °FPartly sunny.3 mph88%29.90 "Hg12 mi
6:00 PM64 °FScattered clouds.No wind84%29.91 "Hg12 mi
Weather by CustomWeather, © 2015

See weather overviewHow to use our weather pages